CW2014 Weather Reports


time (UTC)temp
C
wind
direction
speed
KPH
gust
KPH
rain 1hr
cm
rain 24hr
cm
rain mn
cm
humidity
%
barometer
mb
20260903171555 34 167 3.2 12.9 0.00 0.00 0.00 43 1012.0
20260903171024 33 90 3.2 12.9 0.00 0.00 0.00 43 1012.0
20260903170526 33 157 4.8 12.9 0.00 0.00 0.00 44 1011.9
20260903170047 33 284 3.2 14.5 0.00 0.00 0.00 43 1012.0
20260903165524 33 194 4.8 14.5 0.00 0.00 0.00 44 1011.9
20260903165024 33 139 1.6 9.7 0.00 0.00 0.00 45 1011.9
20260903164552 33 76 1.6 11.3 0.00 0.00 0.00 44 1011.9
20260903164026 33 211 3.2 11.3 0.00 0.00 0.00 44 1011.9
20260903163529 33 187 1.6 9.7 0.00 0.00 0.00 44 1012.0
20260903163048 33 20 1.6 8.0 0.00 0.00 0.00 44 1011.9
20260903162526 33 215 1.6 12.9 0.00 0.00 0.00 44 1012.0
20260903162026 33 97 3.2 12.9 0.00 0.00 0.00 45 1011.9
20260903161546 33 167 4.8 11.3 0.00 0.00 0.00 45 1011.9
20260903161027 33 134 3.2 11.3 0.00 0.00 0.00 46 1011.9
20260903160526 32 180 4.8 14.5 0.00 0.00 0.00 46 1012.0
20260903160100 32 123 3.2 16.1 0.00 0.00 0.00 47 1012.0
20260903155525 32 141 4.8 16.1 0.00 0.00 0.00 47 1012.0
20260903155029 32 215 3.2 12.9 0.00 0.00 0.00 48 1011.9
20260903154546 32 192 3.2 12.9 0.00 0.00 0.00 49 1012.0
20260903154026 32 221 3.2 12.9 0.00 0.00 0.00 49 1012.0
20260903153525 31 0 4.8 12.9 0.00 0.00 0.00 49 1011.9
20260903153054 31 238 3.2 11.3 0.00 0.00 0.00 49 1012.0
20260903152528 31 219 3.2 11.3 0.00 0.00 0.00 49 1012.1
20260903152027 31 207 3.2 11.3 0.00 0.00 0.00 50 1012.0
20260903151547 31 209 3.2 11.3 0.00 0.00 0.00 51 1011.9
20260903151025 31 220 3.2 11.3 0.00 0.00 0.00 52 1012.0
20260903150526 31 202 1.6 8.0 0.00 0.00 0.00 53 1012.0
20260903150053 30 192 3.2 8.0 0.00 0.00 0.00 54 1012.0
20260903145525 30 184 3.2 11.3 0.00 0.00 0.00 54 1012.0
20260903145026 30 219 3.2 11.3 0.00 0.00 0.00 55 1011.9
20260903144554 30 169 4.8 9.7 0.00 0.00 0.00 56 1012.0
20260903144025 30 214 3.2 12.9 0.00 0.00 0.00 58 1012.0
20260903143524 30 201 3.2 12.9 0.00 0.00 0.00 59 1012.0
20260903143046 29 181 4.8 12.9 0.00 0.00 0.00 60 1012.0
20260903142525 28 198 3.2 11.3 0.00 0.00 0.00 61 1012.0
20260903142024 28 181 3.2 11.3 0.00 0.00 0.00 62 1011.9
20260903141548 28 174 3.2 11.3 0.00 0.00 0.00 63 1011.9
20260903141025 28 184 3.2 11.3 0.00 0.00 0.00 64 1012.0
20260903140525 27 224 3.2 9.7 0.00 0.00 0.00 65 1011.9
20260903140048 27 178 1.6 8.0 0.00 0.00 0.00 67 1011.8
20260903135526 27 164 3.2 8.0 0.00 0.00 0.00 68 1011.7
20260903135026 27 173 1.6 8.0 0.00 0.00 0.00 68 1011.6
20260903134551 27 0 0.0 4.8 0.00 0.00 0.00 68 1011.5
20260903134024 27 173 1.6 6.4 0.00 0.00 0.00 68 1011.5
20260903133525 27 173 1.6 6.4 0.00 0.00 0.00 68 1011.5
20260903133059 27 173 3.2 6.4 0.00 0.00 0.00 68 1011.5
20260903132523 27 184 1.6 8.0 0.00 0.00 0.00 69 1011.4
20260903132024 27 155 1.6 8.0 0.00 0.00 0.00 69 1011.4
20260903131549 27 155 1.6 8.0 0.00 0.00 0.00 69 1011.2
20260903131026 27 155 1.6 8.0 0.00 0.00 0.00 69 1011.2
20260903130525 27 155 1.6 4.8 0.00 0.00 0.00 69 1011.1
20260903130046 27 155 1.6 6.4 0.00 0.00 0.00 69 1011.1
20260903125525 27 0 1.6 6.4 0.00 0.00 0.00 69 1011.2
20260903125026 27 163 1.6 6.4 0.00 0.00 0.00 69 1011.1
20260903124553 26 163 3.2 6.4 0.00 0.00 0.00 69 1011.1
20260903124023 26 150 3.2 6.4 0.00 0.00 0.00 69 1011.1
20260903123526 27 145 0.0 4.8 0.00 0.00 0.00 69 1011.1
20260903123050 27 0 0.0 3.2 0.00 0.00 0.00 68 1010.8
20260903122525 27 145 1.6 3.2 0.00 0.00 0.00 68 1010.8
20260903122027 27 145 0.0 3.2 0.00 0.00 0.00 68 1010.7
20260903121545 27 145 1.6 3.2 0.00 0.00 0.00 68 1010.7
20260903121025 27 145 0.0 3.2 0.00 0.00 0.00 67 1010.6
20260903120524 27 0 0.0 4.8 0.00 0.00 0.00 67 1010.7
20260903115525 27 145 1.6 4.8 0.00 0.00 0.00 66 1010.7
20260903115025 27 157 1.6 6.4 0.00 0.00 0.00 66 1010.6
20260903114546 27 0 0.0 8.0 0.00 0.00 0.00 66 1010.5
20260903114025 27 167 1.6 8.0 0.00 0.00 0.00 66 1010.4
20260903113526 27 128 0.0 6.4 0.00 0.00 0.00 65 1010.4
20260903113046 27 0 0.0 3.2 0.00 0.00 0.00 65 1010.4
20260903112526 27 159 0.0 3.2 0.00 0.00 0.00 64 1010.4
20260903112027 27 159 0.0 3.2 0.00 0.00 0.00 64 1010.4
20260903111547 27 159 0.0 6.4 0.00 0.00 0.00 63 1010.3
20260903111026 27 160 0.0 6.4 0.00 0.00 0.00 62 1010.2
20260903110527 28 0 1.6 6.4 0.00 0.00 0.00 61 1010.3
20260903110044 28 159 1.6 6.4 0.00 0.00 0.00 61 1010.2
20260903105524 28 169 1.6 6.4 0.00 0.00 0.00 60 1010.2
20260903105024 28 0 1.6 6.4 0.00 0.00 0.00 58 1010.3
20260903104550 28 143 0.0 4.8 0.00 0.00 0.00 57 1010.3
20260903104023 28 23 0.0 3.2 0.00 0.00 0.00 56 1010.2
20260903103528 28 0 0.0 6.4 0.00 0.00 0.00 55 1010.2
20260903103047 28 0 1.6 6.4 0.00 0.00 0.00 56 1010.3
20260903102526 28 351 1.6 6.4 0.00 0.00 0.00 55 1010.3
20260903102025 28 0 0.0 8.0 0.00 0.00 0.00 55 1010.3
20260903101547 28 84 0.0 8.0 0.00 0.00 0.00 55 1010.3
20260903101024 28 70 1.6 6.4 0.00 0.00 0.00 55 1010.3
20260903100526 29 58 1.6 6.4 0.00 0.00 0.00 54 1010.3
20260903100050 29 74 1.6 4.8 0.00 0.00 0.00 53 1010.3
20260903095524 29 0 0.0 6.4 0.00 0.00 0.00 52 1010.2
20260903095024 29 194 1.6 6.4 0.00 0.00 0.00 52 1010.3
20260903094552 29 198 0.0 4.8 0.00 0.00 0.00 51 1010.4
20260903094025 30 228 0.0 4.8 0.00 0.00 0.00 51 1010.3
20260903093525 30 227 1.6 4.8 0.00 0.00 0.00 51 1010.3
20260903093113 30 250 1.6 4.8 0.00 0.00 0.00 50 1010.3
20260903092524 30 233 0.0 4.8 0.00 0.00 0.00 50 1010.3
20260903092027 30 297 1.6 4.8 0.00 0.00 0.00 50 1010.4
20260903091546 30 247 0.0 4.8 0.00 0.00 0.00 49 1010.3
20260903091024 30 229 1.6 9.7 0.00 0.00 0.00 49 1010.2
20260903090523 30 0 0.0 9.7 0.00 0.00 0.00 48 1010.2
20260903090050 30 225 3.2 9.7 0.00 0.00 0.00 48 1010.2
20260903085523 30 226 1.6 9.7 0.00 0.00 0.00 48 1010.2
20260903085024 30 230 3.2 11.3 0.00 0.00 0.00 47 1010.1
20260903084546 30 212 3.2 11.3 0.00 0.00 0.00 47 1010.2
20260903084026 30 197 3.2 11.3 0.00 0.00 0.00 46 1010.1
20260903083525 31 277 3.2 11.3 0.00 0.00 0.00 46 1010.1
20260903083045 31 227 4.8 11.3 0.00 0.00 0.00 45 1010.1
20260903082524 31 257 3.2 12.9 0.00 0.00 0.00 45 1010.1
20260903082025 31 209 3.2 12.9 0.00 0.00 0.00 45 1010.1
20260903081553 31 248 3.2 12.9 0.00 0.00 0.00 45 1010.2
20260903081025 31 220 4.8 12.9 0.00 0.00 0.00 46 1010.1
20260903080525 31 223 3.2 11.3 0.00 0.00 0.00 47 1010.1
20260903080100 31 213 4.8 9.7 0.00 0.00 0.00 48 1010.1
20260903075525 31 204 3.2 9.7 0.00 0.00 0.00 48 1010.2
20260903075024 31 195 1.6 8.0 0.00 0.00 0.00 49 1010.1
20260903074600 31 228 3.2 8.0 0.00 0.00 0.00 49 1010.2
20260903074024 31 231 0.0 4.8 0.00 0.00 0.00 49 1010.1
20260903073525 31 302 0.0 6.4 0.00 0.00 0.00 49 1010.0
20260903073105 31 307 1.6 6.4 0.00 0.00 0.00 48 1010.1
20260903072524 31 311 1.6 8.0 0.00 0.00 0.00 48 1010.1
20260903072025 31 0 3.2 8.0 0.00 0.00 0.00 47 1010.2
20260903071549 31 309 1.6 11.3 0.00 0.00 0.00 47 1010.1
20260903071024 31 254 1.6 11.3 0.00 0.00 0.00 47 1010.0
20260903070526 32 244 3.2 11.3 0.00 0.00 0.00 46 1010.0
20260903070047 32 207 3.2 12.9 0.00 0.00 0.00 46 1010.1
20260903065526 32 256 3.2 12.9 0.00 0.00 0.00 46 1010.0
20260903065024 31 241 1.6 9.7 0.00 0.00 0.00 46 1010.0
20260903064546 32 201 1.6 6.4 0.00 0.00 0.00 46 1010.0
20260903064024 31 220 1.6 6.4 0.00 0.00 0.00 46 1010.0
20260903063524 32 241 1.6 6.4 0.00 0.00 0.00 46 1010.0
20260903063053 32 200 3.2 6.4 0.00 0.00 0.00 46 1010.0
20260903062523 32 219 1.6 6.4 0.00 0.00 0.00 45 1010.0
20260903062028 32 211 1.6 6.4 0.00 0.00 0.00 45 1010.0
20260903061555 32 240 0.0 6.4 0.00 0.00 0.00 45 1009.9
20260903061027 32 211 0.0 4.8 0.00 0.00 0.00 45 1009.9
20260903060524 32 234 0.0 6.4 0.00 0.00 0.00 45 1009.9
20260903060049 32 0 1.6 6.4 0.00 0.00 0.00 44 1009.8
20260903055525 32 231 1.6 6.4 0.00 0.00 0.00 44 1009.8
20260903055024 32 238 0.0 6.4 0.00 0.00 0.00 44 1009.8
20260903054548 32 254 1.6 6.4 0.00 0.00 0.00 44 1009.8
20260903054024 32 220 1.6 6.4 0.00 0.00 0.00 43 1009.8
20260903053525 32 251 1.6 6.4 0.00 0.00 0.00 43 1009.9
20260903053053 32 242 1.6 6.4 0.00 0.00 0.00 43 1009.8
20260903052528 32 184 1.6 4.8 0.00 0.00 0.00 42 1009.8
20260903052025 32 184 1.6 6.4 0.00 0.00 0.00 42 1009.9
20260903051550 32 184 1.6 6.4 0.00 0.00 0.00 42 1009.9
20260903051025 32 178 1.6 6.4 0.00 0.00 0.00 41 1009.9
20260903050525 32 178 1.6 6.4 0.00 0.00 0.00 41 1009.8
20260903050042 33 0 1.6 6.4 0.00 0.00 0.00 41 1009.8
20260903045524 33 179 1.6 6.4 0.00 0.00 0.00 41 1009.7
20260903045024 33 194 1.6 8.0 0.00 0.00 0.00 40 1009.9
20260903044555 33 0 1.6 8.0 0.00 0.00 0.00 40 1009.8
20260903044027 33 0 3.2 8.0 0.00 0.00 0.00 40 1009.8
20260903043528 33 0 1.6 6.4 0.00 0.00 0.00 39 1009.9
20260903043047 33 229 1.6 6.4 0.00 0.00 0.00 39 1009.7
20260903042527 33 0 1.6 4.8 0.00 0.00 0.00 39 1009.7
20260903042024 33 265 0.0 4.8 0.00 0.00 0.00 38 1009.7
20260903041546 33 299 1.6 4.8 0.00 0.00 0.00 38 1009.6
20260903041025 34 299 1.6 4.8 0.00 0.00 0.00 37 1009.6
20260903040524 34 294 1.6 4.8 0.00 0.00 0.00 37 1009.6
20260903040055 34 298 0.0 4.8 0.00 0.00 0.00 37 1009.6
20260903035524 34 0 1.6 4.8 0.00 0.00 0.00 36 1009.5
20260903035025 34 262 1.6 4.8 0.00 0.00 0.00 36 1009.5
20260903034551 34 266 1.6 4.8 0.00 0.00 0.00 36 1009.6
20260903034026 34 251 0.0 4.8 0.00 0.00 0.00 36 1009.5
20260903033526 35 277 0.0 4.8 0.00 0.00 0.00 36 1009.4
20260903033047 35 282 0.0 4.8 0.00 0.00 0.00 36 1009.4
20260903032529 35 0 1.6 4.8 0.00 0.00 0.00 35 1009.4
20260903032025 35 262 1.6 6.4 0.00 0.00 0.00 35 1009.3
20260903031603 35 261 1.6 6.4 0.00 0.00 0.00 35 1009.1
20260903031025 35 304 1.6 6.4 0.00 0.00 0.00 35 1009.2
20260903030524 35 302 1.6 6.4 0.00 0.00 0.00 35 1009.2
20260903030056 35 299 1.6 6.4 0.00 0.00 0.00 35 1009.1
20260903025524 35 274 1.6 11.3 0.00 0.00 0.00 35 1009.0
20260903025029 35 292 3.2 11.3 0.00 0.00 0.00 34 1008.9
20260903024554 35 303 1.6 8.0 0.00 0.00 0.00 34 1008.9
20260903024026 35 257 1.6 11.3 0.00 0.00 0.00 34 1009.0
20260903023527 35 299 3.2 11.3 0.00 0.00 0.00 34 1008.9
20260903023047 35 273 1.6 9.7 0.00 0.00 0.00 33 1008.9
20260903022525 35 290 3.2 11.3 0.00 0.00 0.00 33 1008.9
20260903022025 35 302 3.2 11.3 0.00 0.00 0.00 33 1008.9
20260903021546 35 306 3.2 11.3 0.00 0.00 0.00 33 1008.8
20260903021026 35 261 1.6 11.3 0.00 0.00 0.00 33 1008.9
20260903020525 36 275 3.2 12.9 0.00 0.00 0.00 32 1008.7
20260903020054 36 282 1.6 12.9 0.00 0.00 0.00 32 1008.7
20260903015527 36 292 3.2 11.3 0.00 0.00 0.00 32 1008.7
20260903015028 36 270 3.2 12.9 0.00 0.00 0.00 32 1008.7
20260903014555 36 0 4.8 12.9 0.00 0.00 0.00 32 1008.7
20260903014026 36 290 3.2 12.9 0.00 0.00 0.00 31 1008.5
20260903013525 36 288 3.2 12.9 0.00 0.00 0.00 31 1008.5
20260903013046 36 303 3.2 12.9 0.00 0.00 0.00 31 1008.3
20260903012528 36 266 1.6 14.5 0.00 0.00 0.00 31 1008.3
20260903012024 36 297 4.8 14.5 0.00 0.00 0.00 30 1008.3
20260903011557 36 290 4.8 14.5 0.00 0.00 0.00 30 1008.3
20260903011028 37 300 3.2 12.9 0.00 0.00 0.00 30 1008.3
20260903010527 37 299 3.2 12.9 0.00 0.00 0.00 30 1008.3
20260903010051 37 275 4.8 12.9 0.00 0.00 0.00 30 1008.4
20260903005523 37 256 3.2 12.9 0.00 0.00 0.00 30 1008.5
20260903005026 37 0 1.6 12.9 0.00 0.00 0.00 30 1008.5
20260903004550 37 0 0.0 14.5 0.00 0.00 0.00 29 1008.5
20260903004026 37 246 1.6 14.5 0.00 0.00 0.00 29 1008.3
20260903003526 37 246 3.2 11.3 0.00 0.00 0.00 29 1008.3
20260903003047 37 313 4.8 11.3 0.00 0.00 0.00 29 1008.3
20260903002525 37 304 3.2 9.7 0.00 0.00 0.00 28 1008.5
20260903002026 38 297 1.6 12.9 0.00 0.00 0.00 28 1008.6
20260903001600 38 275 3.2 12.9 0.00 0.00 0.00 28 1008.6
20260903001026 38 327 1.6 12.9 0.00 0.00 0.00 27 1008.7
20260903000525 38 301 3.2 12.9 0.00 0.00 0.00 28 1008.7
20260903000050 38 247 3.2 16.1 0.00 0.00 0.00 28 1008.6
20260902235527 38 251 4.8 16.1 0.00 0.00 0.00 28 1008.6
20260902235025 38 283 1.6 12.9 0.00 0.00 0.00 28 1008.6
20260902234558 38 0 4.8 12.9 0.00 0.00 0.00 27 1008.7
20260902234027 38 341 3.2 12.9 0.00 0.00 0.00 27 1008.8
20260902233527 38 262 4.8 12.9 0.00 0.00 0.00 27 1008.8
20260902233047 38 309 4.8 14.5 0.00 0.00 0.00 27 1008.8
20260902232529 39 242 3.2 14.5 0.00 0.00 0.00 27 1009.0
20260902232025 38 257 1.6 11.3 0.00 0.00 0.00 27 1008.9
20260902231559 38 187 4.8 14.5 0.00 0.00 0.00 28 1009.1
20260902231026 38 264 1.6 17.7 0.00 0.00 0.00 28 1009.1
20260902230531 38 226 4.8 17.7 0.00 0.00 0.00 28 1009.1
20260902230051 38 223 6.4 19.3 0.00 0.00 0.00 28 1009.4
20260902225527 38 273 8.0 19.3 0.00 0.00 0.00 28 1009.4
20260902225027 38 309 6.4 19.3 0.00 0.00 0.00 27 1009.4
20260902224553 38 331 6.4 17.7 0.00 0.00 0.00 28 1009.4
20260902224027 38 301 6.4 17.7 0.00 0.00 0.00 27 1009.4
20260902223531 38 314 3.2 17.7 0.00 0.00 0.00 29 1009.5
20260902223052 39 132 6.4 17.7 0.00 0.00 0.00 27 1009.6
20260902222525 38 220 4.8 9.7 0.00 0.00 0.00 28 1009.7
20260902222032 38 333 1.6 11.3 0.00 0.00 0.00 29 1009.8
20260902221550 38 297 1.6 12.9 0.00 0.00 0.00 29 1009.7
20260902221028 38 265 4.8 17.7 0.00 0.00 0.00 29 1010.0
20260902220525 38 252 3.2 17.7 0.00 0.00 0.00 29 1009.9
20260902220058 38 231 3.2 14.5 0.00 0.00 0.00 29 1010.1
20260902215525 38 262 3.2 14.5 0.00 0.00 0.00 29 1010.2
20260902215025 38 205 3.2 14.5 0.00 0.00 0.00 31 1010.1
20260902214545 38 315 4.8 14.5 0.00 0.00 0.00 30 1010.0
20260902214026 38 196 4.8 12.9 0.00 0.00 0.00 31 1010.3
20260902213527 38 183 3.2 19.3 0.00 0.00 0.00 31 1010.3
20260902213102 38 210 8.0 20.9 0.00 0.00 0.00 31 1010.5
20260902212525 38 200 3.2 20.9 0.00 0.00 0.00 31 1010.4
20260902212025 38 211 4.8 17.7 0.00 0.00 0.00 30 1010.6
20260902211550 38 197 8.0 19.3 0.00 0.00 0.00 31 1010.7
20260902211030 37 213 6.4 19.3 0.00 0.00 0.00 32 1010.6
20260902210527 37 292 4.8 17.7 0.00 0.00 0.00 32 1010.7
20260902210048 37 263 6.4 17.7 0.00 0.00 0.00 33 1010.8
20260902205525 37 290 8.0 22.5 0.00 0.00 0.00 32 1010.8
20260902205026 38 217 8.0 22.5 0.00 0.00 0.00 32 1010.8
20260902204548 38 226 4.8 17.7 0.00 0.00 0.00 31 1011.1
20260902204025 38 258 6.4 17.7 0.00 0.00 0.00 31 1011.1
20260902203525 38 180 8.0 17.7 0.00 0.00 0.00 32 1011.2
20260902203101 38 218 4.8 16.1 0.00 0.00 0.00 32 1011.1
20260902202525 38 47 1.6 11.3 0.00 0.00 0.00 32 1011.3
20260902202026 37 207 1.6 16.1 0.00 0.00 0.00 34 1011.4
20260902201547 37 310 4.8 17.7 0.00 0.00 0.00 34 1011.5
20260902201023 37 0 4.8 17.7 0.00 0.00 0.00 34 1011.6
20260902200526 37 297 3.2 11.3 0.00 0.00 0.00 34 1011.7
20260902200056 37 169 1.6 11.3 0.00 0.00 0.00 34 1011.8
20260902195526 36 297 3.2 12.9 0.00 0.00 0.00 35 1012.0
20260902195029 37 227 4.8 12.9 0.00 0.00 0.00 34 1012.1
20260902194547 37 264 3.2 12.9 0.00 0.00 0.00 34 1012.1
20260902194026 37 198 4.8 16.1 0.00 0.00 0.00 34 1012.1
20260902193525 37 161 4.8 16.1 0.00 0.00 0.00 34 1012.2
20260902193049 37 189 3.2 14.5 0.00 0.00 0.00 35 1012.3
20260902192525 37 200 3.2 14.5 0.00 0.00 0.00 35 1012.2
20260902192031 37 214 6.4 12.9 0.00 0.00 0.00 35 1012.3
20260902191552 37 224 4.8 14.5 0.00 0.00 0.00 35 1012.5
20260902191029 37 161 4.8 14.5 0.00 0.00 0.00 35 1012.5
20260902190525 37 188 3.2 16.1 0.00 0.00 0.00 35 1012.5
20260902190044 37 189 4.8 16.1 0.00 0.00 0.00 36 1012.7
20260902185525 36 218 1.6 11.3 0.00 0.00 0.00 38 1012.6
20260902185026 36 301 1.6 11.3 0.00 0.00 0.00 37 1012.8
20260902184609 36 300 1.6 12.9 0.00 0.00 0.00 37 1012.9
20260902184030 36 171 4.8 12.9 0.00 0.00 0.00 38 1012.9
20260902183524 36 171 4.8 12.9 0.00 0.00 0.00 39 1013.1
20260902183049 36 158 3.2 14.5 0.00 0.00 0.00 39 1013.1
20260902182527 36 169 3.2 16.1 0.00 0.00 0.00 39 1013.2
20260902182029 36 148 4.8 16.1 0.00 0.00 0.00 39 1013.3
20260902181549 36 0 3.2 14.5 0.00 0.00 0.00 38 1013.4
20260902181026 36 190 6.4 14.5 0.00 0.00 0.00 38 1013.4
20260902180525 36 208 1.6 12.9 0.00 0.00 0.00 39 1013.4
20260902180046 36 207 4.8 12.9 0.00 0.00 0.00 40 1013.5
20260902175523 35 287 4.8 12.9 0.00 0.00 0.00 40 1013.4
20260902175026 35 250 1.6 9.7 0.00 0.00 0.00 40 1013.4
20260902174554 35 192 1.6 9.7 0.00 0.00 0.00 40 1013.4
20260902174029 35 224 1.6 11.3 0.00 0.00 0.00 39 1013.5
20260902173525 36 302 3.2 14.5 0.00 0.00 0.00 39 1013.6
20260902173049 35 0 1.6 14.5 0.00 0.00 0.00 40 1013.6
20260902172529 35 217 4.8 12.9 0.00 0.00 0.00 41 1013.7
20260902172026 35 0 0.0 11.3 0.00 0.00 0.00 41 1013.8